ONEWEB-0144 (47290 NORAD) Tracking and Keplerian Element Data

This shows tracking and keplerian element data for the satellite.

Feedback or suggestion? Click here.




ElementValue
Catalog47290
NameONEWEB-0144
Epoch Orbit1640
Epoch Day102.25003472
Epoch Year2021
RAAN6.7609
Inclination87.9131
Eccentricity0.0001746
Argument of Perigee98.3711
Mean Anonmoly41.5169
Mean Motion13.23439915
Decay Rate-7.884E-05
L11 47290U 20100AJ 21102.25003472 -.00007884 00000-0 -18683-1 0 9990
L22 47290 87.9131 6.7609 0001746 98.3711 41.5169 13.23439915 16405

Live tracking and technical data element details for ONEWEB-0144 (NORAD 47290). ONEWEB-0144 can be tracked NOW for your location showing map with azimuth and elevation plus other details from your city location.

Track the satellite on the map from your city or location and see movement details for azimuth, elevation, latitude, longitude, range, height, and movement on the map or in text.







IsCatalogInMostPopularTable: catalog: 47290, numindb: 34
Update: records affected: 1



GetName: 47290 ONEWEB-0144

Hit Count: updated at: Tue, 13 Apr 2021 05:13:46 GMT